{"data":{"norad_id":55376,"epoch":"2026-05-25T04:59:11.224320Z","epoch_age_seconds":61028,"freshness":"FRESH","line1":"1 55376U 23013AX  26145.20776880  .00001036  00000+0  47177-4 0  9990","line2":"2 55376  43.0018 216.7374 0001250 271.7190  88.3518 15.27574669183545","mean_motion":15.27574669,"eccentricity":0.000125,"inclination_deg":43.0018,"raan_deg":216.7374,"arg_perigee_deg":271.719,"mean_anomaly_deg":88.3518,"bstar":4.7177e-5,"rev_number":18354,"period_min":94.267077690066,"perigee_km":482.20740876052,"apogee_km":483.92270927527,"semimajor_km":6861.2020590179,"source":"CELESTRAK","updated_at":"2026-05-25T13:38:17.769364Z"}}